• In Romania
  • List of Countries
  • For 7 days
  • Water Temperature
  • Satellite Maps
  • Weather Map
  • Weather Widgets
  • user-avatar
    Login

    Hourly Weather Kerns

    Today, 23 July, Monday

    Time Temperature Precipitation Wind Pressure Humidity
    00:00 +20°C° 0.1 mm 3 mps 762 mmHg 97%
    01:00 +20°C° 0.1 mm 3 mps 762 mmHg 97%
    02:00 +20°C° 0.1 mm 3 mps 761 mmHg 97%
    03:00 +20°C° 0.1 mm 3 mps 761 mmHg 97%
    04:00 +20°C° 0 mm 3 mps 761 mmHg 97%
    05:00 +20°C° 0.1 mm 3 mps 761 mmHg 97%
    06:00 +20°C° 0.1 mm 3 mps 762 mmHg 97%
    07:00 +20°C° 0.1 mm 3 mps 762 mmHg 97%
    08:00 +22°C° 0 mm 3 mps 762 mmHg 89%
    09:00 +24°C° 0 mm 3 mps 762 mmHg 80%
    10:00 +26°C° 0 mm 3 mps 762 mmHg 72%
    11:00 +27°C° 0 mm 3 mps 762 mmHg 66%
    12:00 +28°C° 0 mm 3 mps 761 mmHg 61%
    13:00 +29°C° 0 mm 3 mps 761 mmHg 55%
    14:00 +28°C° 0 mm 3 mps 761 mmHg 61%
    15:00 +27°C° 0 mm 3 mps 760 mmHg 66%
    16:00 +26°C° 0 mm 3 mps 760 mmHg 72%
    17:00 +25°C° 0 mm 3 mps 760 mmHg 79%
    18:00 +24°C° 0 mm 3 mps 760 mmHg 87%
    19:00 +21°C° 0 mm 3 mps 761 mmHg 95%
    20:00 +21°C° 0 mm 3 mps 761 mmHg 95%
    21:00 +21°C° 0 mm 3 mps 761 mmHg 96%
    22:00 +20°C° 0 mm 3 mps 761 mmHg 97%
    23:00 +21°C° 0.1 mm 3 mps 761 mmHg 96%

    Tomorrow, 24 July, Tuesday

    Time Temperature Precipitation Wind Pressure Humidity
    00:00 +21°C° 0.1 mm 3 mps 761 mmHg 95%
    01:00 +21°C° 0.1 mm 3 mps 761 mmHg 95%
    02:00 +21°C° 0.1 mm 3 mps 761 mmHg 95%
    03:00 +20°C° 0.1 mm 2 mps 761 mmHg 96%
    04:00 +20°C° 0.1 mm 2 mps 761 mmHg 96%
    05:00 +20°C° 0.1 mm 2 mps 761 mmHg 97%
    06:00 +20°C° 0.1 mm 2 mps 761 mmHg 97%
    07:00 +20°C° 0.1 mm 3 mps 762 mmHg 98%
    08:00 +21°C° 0.1 mm 3 mps 762 mmHg 91%
    09:00 +24°C° 0.1 mm 3 mps 762 mmHg 83%
    10:00 +26°C° 0.1 mm 3 mps 762 mmHg 76%
    11:00 +27°C° 0.1 mm 4 mps 762 mmHg 72%
    12:00 +27°C° 0.1 mm 4 mps 761 mmHg 68%
    13:00 +28°C° 0.1 mm 4 mps 761 mmHg 64%
    14:00 +28°C° 0.1 mm 4 mps 760 mmHg 68%
    15:00 +27°C° 0.1 mm 4 mps 760 mmHg 71%
    16:00 +26°C° 0.1 mm 4 mps 760 mmHg 75%
    17:00 +25°C° 0.1 mm 4 mps 760 mmHg 82%
    18:00 +22°C° 0.1 mm 4 mps 761 mmHg 88%
    19:00 +21°C° 0.1 mm 4 mps 761 mmHg 95%
    20:00 +21°C° 0 mm 4 mps 761 mmHg 95%
    21:00 +20°C° 0 mm 4 mps 762 mmHg 95%
    22:00 +20°C° 0 mm 4 mps 763 mmHg 95%
    23:00 +20°C° 0 mm 3 mps 762 mmHg 95%

    Day after tomorrow, 25 July, Wednesday

    Time Temperature Precipitation Wind Pressure Humidity
    00:00 +20°C° 0 mm 3 mps 762 mmHg 96%
    01:00 +19°C° 0 mm 3 mps 762 mmHg 96%
    02:00 +19°C° 0 mm 3 mps 762 mmHg 97%
    03:00 +19°C° 0 mm 3 mps 761 mmHg 97%
    04:00 +18°C° 0 mm 2 mps 761 mmHg 98%
    05:00 +18°C° 0 mm 3 mps 761 mmHg 98%
    06:00 +18°C° 0 mm 3 mps 761 mmHg 98%
    07:00 +18°C° 0 mm 3 mps 762 mmHg 97%
    08:00 +20°C° 0 mm 3 mps 762 mmHg 85%
    09:00 +23°C° 0 mm 4 mps 762 mmHg 73%
    10:00 +26°C° 0 mm 4 mps 762 mmHg 60%
    11:00 +27°C° 0 mm 4 mps 762 mmHg 56%
    12:00 +28°C° 0 mm 4 mps 761 mmHg 51%
    13:00 +29°C° 0 mm 4 mps 761 mmHg 47%
    14:00 +29°C° 0 mm 4 mps 760 mmHg 48%
    15:00 +29°C° 0 mm 4 mps 760 mmHg 50%
    16:00 +28°C° 0 mm 4 mps 759 mmHg 51%
    17:00 +26°C° 0 mm 4 mps 760 mmHg 63%
    18:00 +24°C° 0 mm 3 mps 760 mmHg 75%
    19:00 +20°C° 0 mm 3 mps 761 mmHg 87%
    20:00 +20°C° 0 mm 3 mps 761 mmHg 90%
    21:00 +19°C° 0 mm 3 mps 762 mmHg 92%
    22:00 +19°C° 0 mm 3 mps 762 mmHg 94%
    23:00 +19°C° 0 mm 2 mps 762 mmHg 94%

    26 July, Thursday

    Time Temperature Precipitation Wind Pressure Humidity
    00:00 +18°C° 0 mm 2 mps 762 mmHg 94%
    01:00 +18°C° 0 mm 2 mps 761 mmHg 94%
    02:00 +18°C° 0 mm 2 mps 761 mmHg 94%
    03:00 +18°C° 0 mm 2 mps 761 mmHg 94%
    04:00 +18°C° 0 mm 3 mps 761 mmHg 95%
    05:00 +18°C° 0 mm 3 mps 761 mmHg 95%
    06:00 +18°C° 0 mm 3 mps 762 mmHg 96%
    07:00 +18°C° 0 mm 3 mps 762 mmHg 96%
    08:00 +20°C° 0 mm 3 mps 762 mmHg 85%
    09:00 +24°C° 0 mm 3 mps 763 mmHg 75%
    10:00 +26°C° 0 mm 3 mps 763 mmHg 64%
    11:00 +27°C° 0 mm 4 mps 762 mmHg 58%
    12:00 +28°C° 0 mm 4 mps 761 mmHg 53%
    13:00 +29°C° 0 mm 4 mps 761 mmHg 47%
    14:00 +29°C° 0 mm 4 mps 760 mmHg 49%
    15:00 +28°C° 0 mm 4 mps 760 mmHg 50%
    16:00 +28°C° 0 mm 4 mps 759 mmHg 51%
    17:00 +26°C° 0 mm 4 mps 760 mmHg 63%
    18:00 +22°C° 0 mm 4 mps 760 mmHg 74%
    19:00 +20°C° 0 mm 3 mps 760 mmHg 86%
    20:00 +19°C° 0 mm 3 mps 761 mmHg 89%
    21:00 +18°C° 0 mm 3 mps 761 mmHg 91%
    22:00 +18°C° 0 mm 3 mps 762 mmHg 93%
    23:00 +17°C° 0 mm 3 mps 761 mmHg 94%

    27 July, Friday

    Time Temperature Precipitation Wind Pressure Humidity
    00:00 +17°C° 0 mm 3 mps 761 mmHg 94%
    01:00 +17°C° 0 mm 3 mps 761 mmHg 94%
    02:00 +17°C° 0 mm 3 mps 761 mmHg 95%
    03:00 +17°C° 0 mm 3 mps 760 mmHg 96%
    04:00 +17°C° 0 mm 3 mps 760 mmHg 97%
    05:00 +17°C° 0 mm 3 mps 760 mmHg 97%
    06:00 +17°C° 0 mm 3 mps 761 mmHg 98%
    07:00 +17°C° 0 mm 3 mps 761 mmHg 98%
    08:00 +20°C° 0 mm 3 mps 762 mmHg 87%
    09:00 +22°C° 0 mm 3 mps 762 mmHg 76%
    10:00 +26°C° 0 mm 3 mps 762 mmHg 65%
    11:00 +27°C° 0 mm 3 mps 761 mmHg 59%
    12:00 +28°C° 0 mm 3 mps 761 mmHg 54%
    13:00 +29°C° 0 mm 3 mps 760 mmHg 48%
    14:00 +29°C° 0 mm 3 mps 759 mmHg 51%
    15:00 +28°C° 0 mm 3 mps 759 mmHg 54%
    16:00 +27°C° 0 mm 2 mps 758 mmHg 57%
    17:00 +25°C° 0 mm 2 mps 759 mmHg 67%
    18:00 +23°C° 0 mm 2 mps 759 mmHg 78%
    19:00 +20°C° 0 mm 2 mps 760 mmHg 88%
    20:00 +20°C° 0 mm 2 mps 760 mmHg 90%
    21:00 +19°C° 0 mm 2 mps 760 mmHg 93%
    22:00 +20°C° 0 mm 1 mps 761 mmHg 95%
    23:00 +20°C° 0 mm 1 mps 761 mmHg 95%

    28 July, Saturday

    Time Temperature Precipitation Wind Pressure Humidity
    00:00 +19°C° 0 mm 1 mps 761 mmHg 95%
    01:00 +19°C° 0 mm 1 mps 760 mmHg 95%
    02:00 +19°C° 0 mm 1 mps 760 mmHg 95%
    03:00 +19°C° 0 mm 1 mps 760 mmHg 94%
    04:00 +19°C° 0 mm 1 mps 760 mmHg 94%
    05:00 +19°C° 0 mm 1 mps 760 mmHg 93%
    06:00 +19°C° 0 mm 1 mps 760 mmHg 92%
    07:00 +18°C° 0 mm 1 mps 761 mmHg 91%
    08:00 +22°C° 0 mm 1 mps 761 mmHg 78%
    09:00 +26°C° 0 mm 1 mps 761 mmHg 65%
    10:00 +29°C° 0 mm 1 mps 761 mmHg 51%
    11:00 +30°C° 0 mm 1 mps 760 mmHg 47%
    12:00 +31°C° 0 mm 1 mps 759 mmHg 43%
    13:00 +32°C° 0 mm 2 mps 759 mmHg 39%
    14:00 +31°C° 0 mm 2 mps 758 mmHg 43%
    15:00 +30°C° 0 mm 2 mps 758 mmHg 46%
    16:00 +29°C° 0 mm 2 mps 757 mmHg 50%
    17:00 +27°C° 0 mm 2 mps 758 mmHg 63%
    18:00 +24°C° 0 mm 2 mps 758 mmHg 77%
    19:00 +21°C° 0 mm 2 mps 759 mmHg 90%
    20:00 +21°C° 0 mm 1 mps 759 mmHg 91%
    21:00 +21°C° 0 mm 1 mps 759 mmHg 92%
    22:00 +20°C° 0 mm 1 mps 760 mmHg 93%
    23:00 +20°C° 0 mm 1 mps 760 mmHg 90%
    Show more